Tracking 29892 objects as of 21-Nov-2024
HD Live streaming from Space Station
objects crossing your sky now

FENGYUN 1C DEB

Track FENGYUN 1C DEB now!
10-day predictions


NORAD ID: 30562
Int'l Code: 1999-025ALC
Perigee: 790.5 km
Apogee: 878.7 km
Inclination: 98.8 °
Period: 101.5 minutes
Semi major axis: 7205 km
RCS: 0.043 m2 (small)
Launch date: May 10, 1999
Source: People's Republic of China (PRC)
Launch site: Taiyaun Space Center, China (TSC)

Note: This is SATELLITE DEBRIS
Your satellite tracking list
Your tracking list is empty




NASA's NSSDC Master Catalog

Two Line Element Set (TLE):
1 30562U 99025ALC 24325.12907920  .00005826  00000-0  27394-2 0  9995
2 30562  98.7905  29.1555 0061222 302.6218  86.6537 14.19377956914931
Source of the keplerian elements: AFSPC